GW5073 Weather Reports


Display with metric or nautical units.
time (UTC)temp
F
wind
direction
speed
MPH
gust
MPH
rain 1hr
in
rain 24hr
in
rain mn
in
humidity
%
barometer
mb
20260507182236 89 105 3.0 3.0 0.00 0.00 0.00 14 1014.0
20260507181733 87 17 2.0 3.0 0.00 0.00 0.00 15 1014.0
20260507181229 88 81 4.0 6.0 0.00 0.00 0.00 14 1014.0
20260507180726 88 194 4.0 4.0 0.00 0.00 0.00 14 1014.3
20260507180223 88 166 3.0 4.0 0.00 0.00 0.00 14 1013.9
20260507175718 87 202 6.0 7.0 0.00 0.00 0.00 15 1014.0
20260507175215 88 263 4.0 6.0 0.00 0.00 0.00 14 1014.4
20260507174713 86 278 5.0 6.0 0.00 0.00 0.00 15 1014.3
20260507174211 86 17 1.0 2.0 0.00 0.00 0.00 15 1014.3
20260507173708 85 114 2.0 3.0 0.00 0.00 0.00 15 1014.5
20260507173205 86 237 6.0 8.0 0.00 0.00 0.00 15 1014.4
20260507172701 86 170 5.0 7.0 0.00 0.00 0.00 15 1014.5
20260507172158 87 191 2.0 2.0 0.00 0.00 0.00 15 1014.5
20260507171653 84 61 2.0 2.0 0.00 0.00 0.00 16 1014.7
20260507171150 84 47 0.0 0.0 0.00 0.00 0.00 16 1014.6
20260507170647 85 159 7.0 9.0 0.00 0.00 0.00 16 1014.6
20260507170144 83 113 1.0 2.0 0.00 0.00 0.00 17 1014.4
20260507165640 84 143 3.0 3.0 0.00 0.00 0.00 16 1014.6
20260507165136 83 183 4.0 4.0 0.00 0.00 0.00 17 1014.7
20260507164632 83 56 1.0 2.0 0.00 0.00 0.00 17 1014.7
20260507164129 83 102 3.0 4.0 0.00 0.00 0.00 17 1014.6
20260507163626 83 319 3.0 3.0 0.00 0.00 0.00 18 1014.6
20260507163124 82 299 2.0 2.0 0.00 0.00 0.00 18 1014.8
20260507162619 81 16 2.0 2.0 0.00 0.00 0.00 19 1014.8
20260507162116 80 190 3.0 3.0 0.00 0.00 0.00 19 1014.8
20260507161612 81 47 1.0 1.0 0.00 0.00 0.00 19 1015.0
20260507161109 80 226 5.0 6.0 0.00 0.00 0.00 20 1015.0
20260507160606 80 223 7.0 8.0 0.00 0.00 0.00 20 1014.9
20260507155557 79 212 4.0 4.0 0.00 0.00 0.00 21 1015.0
20260507155054 80 189 3.0 3.0 0.00 0.00 0.00 21 1015.0
20260507154551 80 336 2.0 3.0 0.00 0.00 0.00 21 1015.1
20260507154048 79 134 6.0 7.0 0.00 0.00 0.00 21 1015.0
20260507153545 79 308 2.0 2.0 0.00 0.00 0.00 21 1015.1
20260507153041 79 82 4.0 6.0 0.00 0.00 0.00 21 1015.0
20260507152537 78 162 2.0 2.0 0.00 0.00 0.00 22 1015.0
20260507152034 78 282 2.0 3.0 0.00 0.00 0.00 23 1015.1
20260507151530 78 56 1.0 1.0 0.00 0.00 0.00 23 1014.9
20260507151027 77 6 2.0 3.0 0.00 0.00 0.00 24 1015.2
20260507150524 76 290 2.0 3.0 0.00 0.00 0.00 24 1015.2
20260507150021 75 293 3.0 4.0 0.00 0.00 0.00 25 1015.1
20260507145515 75 307 4.0 6.0 0.00 0.00 0.00 25 1015.2
20260507145014 74 347 4.0 6.0 0.00 0.00 0.00 26 1015.3
20260507144510 73 327 4.0 4.0 0.00 0.00 0.00 26 1015.0
20260507144008 73 323 4.0 4.0 0.00 0.00 0.00 26 1015.1
20260507143505 73 16 4.0 4.0 0.00 0.00 0.00 26 1015.1
20260507143002 72 352 4.0 6.0 0.00 0.00 0.00 27 1015.0
20260507142457 71 348 6.0 7.0 0.00 0.00 0.00 28 1014.8
20260507141954 70 31 2.0 2.0 0.00 0.00 0.00 28 1014.9
20260507141450 69 339 6.0 7.0 0.00 0.00 0.00 29 1014.9
20260507140947 69 35 7.0 8.0 0.00 0.00 0.00 29 1014.8
20260507140444 69 0 3.0 3.0 0.00 0.00 0.00 29 1014.9
20260507135941 68 359 6.0 7.0 0.00 0.00 0.00 29 1014.8
20260507135438 68 29 3.0 3.0 0.00 0.00 0.00 29 1014.9
20260507134935 68 6 2.0 2.0 0.00 0.00 0.00 30 1014.7
20260507134432 67 23 2.0 2.0 0.00 0.00 0.00 30 1014.7
20260507133928 66 39 1.0 2.0 0.00 0.00 0.00 31 1014.7
20260507133424 65 38 0.0 1.0 0.00 0.00 0.00 32 1014.7
20260507132923 64 336 3.0 4.0 0.00 0.00 0.00 33 1014.8
20260507132418 63 34 1.0 1.0 0.00 0.00 0.00 33 1014.6
20260507131915 62 25 1.0 1.0 0.00 0.00 0.00 34 1014.6
20260507131412 62 29 1.0 1.0 0.00 0.00 0.00 34 1014.7
20260507130909 61 13 1.0 2.0 0.00 0.00 0.00 35 1014.6
20260507130406 61 6 2.0 2.0 0.00 0.00 0.00 35 1014.5
20260507125905 61 15 0.0 1.0 0.00 0.00 0.00 35 1014.7
20260507125402 60 33 2.0 2.0 0.00 0.00 0.00 35 1014.4
20260507124900 60 17 1.0 1.0 0.00 0.00 0.00 35 1014.5
20260507124355 60 359 2.0 3.0 0.00 0.00 0.00 35 1014.7
20260507123854 60 8 1.0 2.0 0.00 0.00 0.00 36 1014.5
20260507123351 60 32 1.0 1.0 0.00 0.00 0.00 35 1014.6
20260507122847 61 15 1.0 1.0 0.00 0.00 0.00 35 1014.7
20260507122342 61 37 1.0 1.0 0.00 0.00 0.00 35 1014.6
20260507121839 61 15 2.0 2.0 0.00 0.00 0.00 35 1014.6
20260507121335 61 7 2.0 2.0 0.00 0.00 0.00 35 1014.8
20260507120832 61 31 2.0 2.0 0.00 0.00 0.00 35 1014.6
20260507120328 61 324 3.0 4.0 0.00 0.00 0.00 35 1014.7
20260507115824 62 10 2.0 2.0 0.00 0.00 0.00 34 1014.6
20260507115320 62 0 2.0 3.0 0.00 0.00 0.00 34 1014.7
20260507114816 62 32 2.0 2.0 0.00 0.00 0.00 34 1014.7
20260507114313 61 33 1.0 1.0 0.00 0.00 0.00 34 1014.8
20260507113811 61 35 0.0 0.0 0.00 0.00 0.00 35 1015.0
20260507113307 62 50 1.0 2.0 0.00 0.00 0.00 34 1014.9
20260507112805 62 36 0.0 1.0 0.00 0.00 0.00 34 1014.9
20260507112306 62 50 0.0 1.0 0.00 0.00 0.00 34 1014.9
20260507111800 62 40 0.0 1.0 0.00 0.00 0.00 34 1015.1
20260507111256 62 345 2.0 3.0 0.00 0.00 0.00 34 1015.1
20260507110752 63 31 2.0 2.0 0.00 0.00 0.00 33 1014.9
20260507110249 63 2 2.0 3.0 0.00 0.00 0.00 33 1015.0
20260507105746 63 25 2.0 2.0 0.00 0.00 0.00 33 1015.1
20260507105241 63 16 1.0 1.0 0.00 0.00 0.00 33 1015.0
20260507104739 63 18 2.0 2.0 0.00 0.00 0.00 33 1015.0
20260507104236 63 37 1.0 2.0 0.00 0.00 0.00 33 1015.0
20260507103732 63 20 2.0 3.0 0.00 0.00 0.00 33 1015.1
20260507103228 64 20 2.0 2.0 0.00 0.00 0.00 32 1015.1
20260507102724 63 19 2.0 2.0 0.00 0.00 0.00 33 1015.2
20260507102221 63 20 1.0 1.0 0.00 0.00 0.00 33 1015.3
20260507101717 63 7 1.0 1.0 0.00 0.00 0.00 33 1015.0
20260507101212 63 41 0.0 0.0 0.00 0.00 0.00 33 1015.2
20260507100710 62 55 1.0 1.0 0.00 0.00 0.00 33 1015.2
20260507100208 62 45 0.0 0.0 0.00 0.00 0.00 33 1015.0
20260507095706 62 26 1.0 1.0 0.00 0.00 0.00 33 1015.2
20260507095202 62 32 1.0 2.0 0.00 0.00 0.00 32 1015.1
20260507094659 63 22 1.0 1.0 0.00 0.00 0.00 32 1015.0
20260507094155 63 52 1.0 1.0 0.00 0.00 0.00 33 1015.2
20260507093653 63 38 0.0 1.0 0.00 0.00 0.00 32 1015.3
20260507093152 63 20 1.0 1.0 0.00 0.00 0.00 33 1015.2
20260507092648 63 37 1.0 1.0 0.00 0.00 0.00 32 1015.3
20260507092145 64 37 0.0 0.0 0.00 0.00 0.00 32 1015.3
20260507091641 64 49 0.0 0.0 0.00 0.00 0.00 32 1015.2
20260507091137 64 45 0.0 0.0 0.00 0.00 0.00 32 1015.4
20260507090633 64 25 1.0 1.0 0.00 0.00 0.00 31 1015.2
20260507090131 65 10 3.0 3.0 0.00 0.00 0.00 31 1015.3
20260507085627 65 12 2.0 2.0 0.00 0.00 0.00 31 1015.4
20260507085124 64 22 1.0 1.0 0.00 0.00 0.00 31 1015.4
20260507084621 65 39 0.0 0.0 0.00 0.00 0.00 31 1015.5
20260507084118 65 51 0.0 0.0 0.00 0.00 0.00 31 1015.5
20260507083614 66 38 0.0 1.0 0.00 0.00 0.00 30 1015.6
20260507083106 66 40 1.0 1.0 0.00 0.00 0.00 30 1015.7
20260507082601 67 23 2.0 2.0 0.00 0.00 0.00 30 1015.6
20260507082058 67 13 1.0 1.0 0.00 0.00 0.00 30 1015.6
20260507081554 67 13 2.0 2.0 0.00 0.00 0.00 29 1015.5
20260507081051 67 353 2.0 2.0 0.00 0.00 0.00 30 1015.6
20260507080547 66 36 1.0 2.0 0.00 0.00 0.00 29 1015.7
20260507080044 66 0 1.0 1.0 0.00 0.00 0.00 30 1015.7
20260507075539 64 22 2.0 2.0 0.00 0.00 0.00 30 1015.7
20260507075036 66 352 2.0 3.0 0.00 0.00 0.00 29 1015.5
20260507074533 66 24 1.0 1.0 0.00 0.00 0.00 29 1015.6
20260507074031 66 31 1.0 1.0 0.00 0.00 0.00 30 1015.5
20260507073526 66 30 0.0 0.0 0.00 0.00 0.00 30 1015.5
20260507073023 66 20 0.0 1.0 0.00 0.00 0.00 29 1015.5
20260507072521 66 15 1.0 1.0 0.00 0.00 0.00 29 1015.5
20260507072018 67 37 0.0 0.0 0.00 0.00 0.00 29 1015.6
20260507071515 67 39 0.0 1.0 0.00 0.00 0.00 29 1015.8
20260507071012 68 46 0.0 0.0 0.00 0.00 0.00 28 1015.6
20260507070509 67 38 0.0 0.0 0.00 0.00 0.00 29 1015.6
20260507070010 67 39 0.0 0.0 0.00 0.00 0.00 29 1015.8
20260507065503 66 40 0.0 0.0 0.00 0.00 0.00 29 1015.5
20260507065000 66 37 0.0 0.0 0.00 0.00 0.00 29 1015.5
20260507064458 67 41 0.0 0.0 0.00 0.00 0.00 29 1015.6
20260507063956 69 32 0.0 0.0 0.00 0.00 0.00 28 1015.8
20260507063452 68 67 1.0 1.0 0.00 0.00 0.00 28 1015.6
20260507062949 67 64 1.0 1.0 0.00 0.00 0.00 28 1015.4
20260507062446 68 72 2.0 2.0 0.00 0.00 0.00 28 1015.6
20260507061944 69 45 0.0 0.0 0.00 0.00 0.00 28 1015.4
20260507061442 69 38 0.0 0.0 0.00 0.00 0.00 28 1015.5
20260507060940 68 45 0.0 1.0 0.00 0.00 0.00 28 1015.6
20260507060436 68 65 1.0 1.0 0.00 0.00 0.00 28 1015.6
20260507055933 67 73 2.0 2.0 0.00 0.00 0.00 28 1015.4
20260507055428 68 54 0.0 1.0 0.00 0.00 0.00 28 1015.5
20260507054925 66 53 0.0 1.0 0.00 0.00 0.00 28 1015.5
20260507054421 66 75 2.0 2.0 0.00 0.00 0.00 28 1015.5
20260507053919 67 60 1.0 1.0 0.00 0.00 0.00 28 1015.4
20260507053416 68 61 1.0 1.0 0.00 0.00 0.00 28 1015.4
20260507052915 71 59 2.0 2.0 0.00 0.00 0.00 27 1015.6
20260507052412 71 39 0.0 0.0 0.00 0.00 0.00 27 1015.5
20260507051908 71 37 0.0 0.0 0.00 0.00 0.00 27 1015.6
20260507051406 72 33 0.0 1.0 0.00 0.00 0.00 26 1015.5
20260507050903 72 31 0.0 0.0 0.00 0.00 0.00 26 1015.4
20260507050359 72 29 0.0 1.0 0.00 0.00 0.00 26 1015.4
20260507045856 72 33 0.0 0.0 0.00 0.00 0.00 26 1015.2
20260507045353 73 17 1.0 1.0 0.00 0.00 0.00 26 1015.3
20260507044850 73 341 1.0 2.0 0.00 0.00 0.00 26 1015.2
20260507044346 73 1 1.0 1.0 0.00 0.00 0.00 26 1015.3
20260507043842 73 10 1.0 1.0 0.00 0.00 0.00 26 1015.2
20260507043339 73 358 1.0 2.0 0.00 0.00 0.00 26 1015.3
20260507042836 73 20 1.0 1.0 0.00 0.00 0.00 26 1015.2
20260507042331 73 2 1.0 1.0 0.00 0.00 0.00 25 1015.1
20260507041828 74 7 2.0 2.0 0.00 0.00 0.00 25 1015.1
20260507041325 74 338 2.0 2.0 0.00 0.00 0.00 25 1014.9
20260507040822 75 251 4.0 4.0 0.00 0.00 0.00 25 1014.9
20260507040318 75 20 2.0 3.0 0.00 0.00 0.00 25 1014.7
20260507035814 75 12 3.0 4.0 0.00 0.00 0.00 24 1014.6
20260507035310 75 305 3.0 4.0 0.00 0.00 0.00 24 1014.6
20260507034808 75 249 2.0 3.0 0.00 0.00 0.00 24 1014.9
20260507034304 75 252 2.0 4.0 0.00 0.00 0.00 24 1014.6
20260507033803 75 229 4.0 4.0 0.00 0.00 0.00 24 1014.6
20260507033300 75 293 4.0 6.0 0.00 0.00 0.00 24 1014.5
20260507032757 75 263 2.0 3.0 0.00 0.00 0.00 24 1014.4
20260507032253 75 235 4.0 6.0 0.00 0.00 0.00 24 1014.1
20260507031749 76 237 5.0 7.0 0.00 0.00 0.00 24 1014.1
20260507031247 76 198 4.0 4.0 0.00 0.00 0.00 24 1014.1
20260507030743 76 218 2.0 3.0 0.00 0.00 0.00 24 1014.0
20260507030241 76 206 4.0 6.0 0.00 0.00 0.00 24 1014.0
20260507025738 76 211 4.0 6.0 0.00 0.00 0.00 24 1014.0
20260507025234 76 269 3.0 4.0 0.00 0.00 0.00 24 1013.8
20260507024733 76 178 2.0 2.0 0.00 0.00 0.00 24 1013.7
20260507024230 76 155 4.0 4.0 0.00 0.00 0.00 24 1013.8
20260507023725 77 169 2.0 3.0 0.00 0.00 0.00 24 1013.7
20260507023222 77 299 4.0 4.0 0.00 0.00 0.00 23 1013.8
20260507022720 77 124 3.0 4.0 0.00 0.00 0.00 23 1013.7
20260507022215 77 95 3.0 4.0 0.00 0.00 0.00 23 1013.6
20260507021712 78 249 4.0 4.0 0.00 0.00 0.00 23 1013.7
20260507021207 78 205 6.0 9.0 0.00 0.00 0.00 23 1013.4
20260507020706 78 231 7.0 9.0 0.00 0.00 0.00 23 1013.4
20260507020202 78 232 3.0 3.0 0.00 0.00 0.00 23 1013.4
20260507015700 79 157 8.0 9.0 0.00 0.00 0.00 23 1013.4
20260507015157 79 222 2.0 3.0 0.00 0.00 0.00 23 1013.4
20260507014653 79 54 4.0 4.0 0.00 0.00 0.00 22 1013.3
20260507014149 80 254 7.0 9.0 0.00 0.00 0.00 22 1013.5
20260507013646 80 171 3.0 4.0 0.00 0.00 0.00 22 1013.2
20260507013144 80 163 10.0 11.0 0.00 0.00 0.00 22 1013.3
20260507012641 80 200 9.0 11.0 0.00 0.00 0.00 22 1013.2
20260507012136 80 170 8.0 10.0 0.00 0.00 0.00 22 1013.4
20260507011635 80 162 7.0 9.0 0.00 0.00 0.00 22 1013.2
20260507011131 81 160 8.0 11.0 0.00 0.00 0.00 22 1013.0
20260507010625 81 241 7.0 9.0 0.00 0.00 0.00 22 1013.2
20260507010122 81 182 5.0 8.0 0.00 0.00 0.00 22 1013.1
20260507005619 81 213 7.0 8.0 0.00 0.00 0.00 22 1013.1
20260507005115 82 193 4.0 4.0 0.00 0.00 0.00 21 1012.9
20260507004612 80 182 7.0 9.0 0.00 0.00 0.00 22 1012.9
20260507004110 81 132 8.0 9.0 0.00 0.00 0.00 22 1012.9
20260507003606 81 194 4.0 7.0 0.00 0.00 0.00 22 1013.1
20260507003101 82 237 10.0 11.0 0.00 0.00 0.00 21 1013.1
20260507002558 82 238 7.0 9.0 0.00 0.00 0.00 22 1013.0
20260507002053 82 306 7.0 9.0 0.00 0.00 0.00 22 1013.1
20260507001550 81 274 7.0 9.0 0.00 0.00 0.00 21 1013.1
20260507001048 81 79 5.0 7.0 0.00 0.00 0.00 22 1013.1
20260507000543 82 166 5.0 7.0 0.00 0.00 0.00 21 1013.0
20260507000039 81 133 10.0 13.0 0.00 0.00 0.00 22 1013.1
20260506235537 81 89 5.0 7.0 0.00 0.00 0.00 22 1013.0
20260506235032 81 252 5.0 6.0 0.00 0.00 0.00 22 1013.1
20260506234530 81 221 4.0 6.0 0.00 0.00 0.00 22 1013.1
20260506234022 82 222 10.0 11.0 0.00 0.00 0.00 21 1013.0
20260506233518 82 225 7.0 9.0 0.00 0.00 0.00 21 1013.1
20260506233015 81 176 7.0 8.0 0.00 0.00 0.00 22 1013.1
20260506232511 82 212 11.0 13.0 0.00 0.00 0.00 22 1013.2
20260506232007 82 263 6.0 8.0 0.00 0.00 0.00 22 1013.2
20260506231505 81 186 3.0 4.0 0.00 0.00 0.00 22 1013.1
20260506231003 81 147 6.0 7.0 0.00 0.00 0.00 22 1013.3
20260506230458 81 204 3.0 3.0 0.00 0.00 0.00 22 1013.4
20260506225954 82 248 10.0 13.0 0.00 0.00 0.00 21 1013.4
20260506225452 81 59 1.0 2.0 0.00 0.00 0.00 22 1013.4
20260506224948 81 208 6.0 7.0 0.00 0.00 0.00 22 1013.5
20260506224446 82 168 10.0 11.0 0.00 0.00 0.00 22 1013.3
20260506223943 81 236 7.0 9.0 0.00 0.00 0.00 22 1013.3
20260506223439 81 216 6.0 7.0 0.00 0.00 0.00 22 1013.5
20260506222936 81 273 9.0 13.0 0.00 0.00 0.00 22 1013.8
20260506222433 81 323 2.0 2.0 0.00 0.00 0.00 22 1013.7
20260506221929 81 259 9.0 9.0 0.00 0.00 0.00 22 1013.7
20260506221425 81 106 8.0 9.0 0.00 0.00 0.00 23 1013.7
20260506220924 82 232 6.0 9.0 0.00 0.00 0.00 22 1013.8
20260506220419 81 206 6.0 9.0 0.00 0.00 0.00 22 1013.9
20260506215915 82 160 6.0 8.0 0.00 0.00 0.00 22 1013.9
20260506215412 81 313 5.0 7.0 0.00 0.00 0.00 22 1013.9
20260506214907 81 221 4.0 4.0 0.00 0.00 0.00 22 1014.3
20260506214404 81 253 7.0 8.0 0.00 0.00 0.00 22 1014.0
20260506213902 81 255 5.0 7.0 0.00 0.00 0.00 23 1014.3
20260506213400 80 209 5.0 8.0 0.00 0.00 0.00 22 1014.3
20260506212857 80 171 6.0 9.0 0.00 0.00 0.00 23 1014.5
20260506212353 78 91 12.0 14.0 0.00 0.00 0.00 24 1014.6
20260506211847 81 239 8.0 9.0 0.00 0.00 0.00 22 1014.6
20260506211344 80 160 4.0 4.0 0.00 0.00 0.00 23 1014.7
20260506210841 79 236 6.0 10.0 0.00 0.00 0.00 23 1014.7
20260506210338 79 231 4.0 6.0 0.00 0.00 0.00 23 1014.9
20260506205835 80 249 9.0 11.0 0.00 0.00 0.00 23 1015.0
20260506205331 81 264 14.0 18.0 0.00 0.00 0.00 23 1014.8
20260506204828 79 319 4.0 6.0 0.00 0.00 0.00 23 1015.0
20260506204325 78 279 6.0 7.0 0.00 0.00 0.00 23 1015.0
20260506203823 78 179 7.0 8.0 0.00 0.00 0.00 24 1014.9
20260506203320 78 125 14.0 18.0 0.00 0.00 0.00 24 1015.1
20260506202817 77 191 7.0 10.0 0.00 0.00 0.00 25 1015.3
20260506202314 78 225 5.0 7.0 0.00 0.00 0.00 24 1015.2
20260506201810 79 253 6.0 7.0 0.00 0.00 0.00 23 1015.3
20260506201308 78 315 11.0 13.0 0.00 0.00 0.00 24 1015.4
20260506200805 78 136 12.0 15.0 0.00 0.00 0.00 24 1015.3
20260506200300 77 193 7.0 9.0 0.00 0.00 0.00 24 1015.4
20260506195757 76 215 7.0 10.0 0.00 0.00 0.00 25 1015.7
20260506195254 77 118 10.0 11.0 0.00 0.00 0.00 25 1015.6
20260506194751 76 324 3.0 3.0 0.00 0.00 0.00 26 1015.6
20260506194247 76 358 2.0 2.0 0.00 0.00 0.00 26 1015.8
20260506193745 77 312 7.0 9.0 0.00 0.00 0.00 25 1015.8
20260506193242 77 228 6.0 9.0 0.00 0.00 0.00 25 1015.7
20260506192738 77 215 3.0 3.0 0.00 0.00 0.00 26 1015.9
20260506192235 77 219 4.0 6.0 0.00 0.00 0.00 25 1015.8
20260506191732 75 138 2.0 2.0 0.00 0.00 0.00 26 1015.9
20260506191228 76 233 4.0 6.0 0.00 0.00 0.00 26 1015.8
20260506190725 76 194 2.0 3.0 0.00 0.00 0.00 27 1016.1
20260506190222 76 232 5.0 6.0 0.00 0.00 0.00 26 1015.9
20260506185719 76 212 4.0 6.0 0.00 0.00 0.00 26 1016.2
20260506185215 76 321 3.0 6.0 0.00 0.00 0.00 26 1016.1
20260506184713 76 228 7.0 8.0 0.00 0.00 0.00 26 1016.2
20260506184210 75 193 4.0 4.0 0.00 0.00 0.00 26 1016.4
20260506183707 75 285 4.0 6.0 0.00 0.00 0.00 26 1016.4
20260506183202 74 204 4.0 4.0 0.00 0.00 0.00 27 1016.4
20260506182700 74 294 5.0 6.0 0.00 0.00 0.00 26 1016.5